Flag for United Kingdom Weather past 2 weeks in Cheltenham, England, United Kingdom

Now
50 °F

Cool.


Feels Like: 49 °F
Forecast: 56 / 67 °F
Wind: 5 mph from Southwest

Location: Little Rissington

Current Time: Jul 6, 2015 at 2:51:53 AM

Latest Report: Jul 6, 2015 at 2:00 AM


Visibility: 13 mi

Pressure: 30.08 "Hg

Humidity: 97%

Dew point: 49 °F

Location of CheltenhamLocation

Historic Weather in Cheltenham — Graph

°F

Cheltenham temperature yesterday

Maximum temperature yesterday: 67 °F (at 2:00 PM)
Minimum temperature yesterday: 51 °F (at 3:00 AM)
Average temperature yesterday: 59 °F

Past Weeks' High & Low Weather Summary

 TemperatureHumidityPressure
High90 °F (Jul 1, 4:00 PM)100% (Jun 21, 1:00 AM)30.29 "Hg (Jun 21, 1:00 AM)
Low48 °F (Jun 23, 3:00 AM)36% (Jun 30, 3:00 PM)29.78 "Hg (Jul 1, 4:00 PM)
Average61 °F76%30.05 "Hg
* Reported Jun 21 1:00 AM — Jul 6 1:00 AM, Cheltenham, Weather by CustomWeather, © 2015

Note: Actual official high and low records may vary slightly from our data, if they occured in-between our weather recording intervals... More about our weather records

Advertising

Cheltenham weather history for previous 24 hours

 ConditionsComfort  
Time TempWeatherWind HumidityBarometerVisibility
1:00 AM
Mon, Jul 6
51 °FCool.8 mph93%30.08 "Hg16 mi
7:00 PM
Sun, Jul 5
63 °FMild.15 mph65%29.98 "Hg16 mi
6:00 PM64 °FMild.16 mph66%29.98 "Hg18 mi
5:00 PM62 °FCool.17 mph79%29.98 "Hg18 mi
4:00 PM57 °FCool.13 mph91%30.00 "Hg11 mi
3:00 PM58 °FCool.15 mph81%30.00 "Hg19 mi
2:00 PM67 °FMild.18 mph56%29.97 "Hg11 mi
1:00 PM65 °FMild.10 mph60%29.98 "Hg11 mi
12:00 PM65 °FMild.12 mph62%30.00 "Hg11 mi
11:00 AM63 °FMild.7 mph65%30.01 "Hg11 mi
10:00 AM59 °FCool.6 mph75%30.04 "Hg11 mi
9:00 AM58 °FCool.5 mph78%30.06 "Hg11 mi
8:00 AM56 °FCool.3 mph78%30.06 "Hg11 mi
7:00 AM54 °FCool.3 mph82%30.08 "Hg12 mi
6:00 AM56 °FCool.5 mph76%30.09 "Hg14 mi
5:00 AM54 °FCool.2 mph76%30.09 "Hg13 mi
3:00 AM51 °FCool.6 mph83%30.11 "Hg17 mi
2:00 AM53 °FCool.5 mph80%30.13 "Hg17 mi
Weather by CustomWeather, © 2015

See weather overviewHow to use our weather pages